Miscellaneous Local Product
Issued by NWS Hastings, NE

Home | Current Version | Previous Version | Graphics & Text | Print | Product List | Glossary On
Versions: 1 2 3 4 5 6 7 8 9 10 11 12 13 14 15 16 17 18 19 20 21 22 23 24 25 26 27 28 29 30 31 32 33 34 35 36 37 38 39 40 41 42 43 44 45 46 47 48 49 50
000
AXUS43 KGID 041202
MISGRI

GID CWA HOURLY WEATHER ROUNDUP
NATIONAL WEATHER SERVICE HASTINGS NE
700 AM CDT SAT JUL 04 2015

NOTE: "FAIR" INDICATES FEW OR NO CLOUDS BELOW 12,000 FEET WITH NO
SIGNIFICANT WEATHER AND/OR OBSTRUCTIONS TO VISIBILITY.

...SOUTH CENTRAL NEBRASKA...

CITY           SKY/WX    TMP DP  RH WIND       PRES   REMARKS
GRAND ISLAND   CLEAR     61  59  93 S5        30.01R FOG
HASTINGS       CLEAR     63  60  90 S6        30.01R
KEARNEY        CLEAR     59  55  88 CALM      30.02R
ORD            CLEAR     59  58  96 S3        29.99S FOG
YORK           CLEAR     61  59  94 S3        30.02R
AURORA         CLEAR     59  59 100 CALM      30.01S FOG
LEXINGTON      PTCLDY    64  62  93 SE9       30.01R FOG
HOLDREGE       CLEAR     58  57  94 CALM      30.01R FOG
HEBRON         CLEAR     59  56  92 CALM      30.01S FOG

...NEBRASKA PANHANDLE...

CITY           SKY/WX    TMP DP  RH WIND       PRES   REMARKS
CHADRON        CLEAR     68  60  75 VRB5      29.90R
ALLIANCE       PTCLDY    63  60  90 S12       29.95F
SCOTTSBLUFF    PTCLDY    65  60  84 E10       29.94F
SIDNEY         MOCLDY    64  60  87 S12       29.99F

...WESTERN AND NORTH CENTRAL NEBRASKA...

CITY           SKY/WX    TMP DP  RH WIND       PRES   REMARKS
VALENTINE      MOCLDY    65  60  84 S9        29.94S
AINSWORTH      MOCLDY    64  62  94 S8        29.96F
ONEILL           N/A     62  62  98 S5        29.98S FOG
BROKEN BOW     PTCLDY    62  60  93 SE3       29.99F FOG
IMPERIAL       PTCLDY    63  58  83 SE6       29.98S
NORTH PLATTE   PTCLDY    63  59  87 E6        29.99S
MCCOOK         CLEAR     62  59  90 E6        29.99S FOG

...EASTERN NEBRASKA...

CITY           SKY/WX    TMP DP  RH WIND       PRES   REMARKS
NORFOLK        CLEAR     58  56  93 CALM      29.99F FOG
SO SIOUX CITY  SUNNY     58  55  90 SE6       29.99R
TEKAMAH        CLEAR     56  54  93 S5        30.00R FOG
COLUMBUS         N/A     55  52  88 CALM      29.99S VSB<1/4
ALBION           N/A     58  56  93 CALM      30.00S FOG
OMAHA EPPLEY   CLEAR     58  56  93 CALM      30.00R FOG
OFFUTT AFB     CLEAR     54  54  99 CALM      30.00R
MILLARD        FOG       58  57  97 CALM      30.01R VSB 1
LINCOLN        CLEAR     60  58  92 N3        30.01R FOG
NEBRASKA CITY  CLEAR     58  56  94 CALM      30.01R
BEATRICE       CLEAR     58  56  93 CALM      30.01R
FALLS CITY     CLEAR     59  58  96 CALM      29.99S

...NORTHERN KANSAS...

CITY           SKY/WX    TMP DP  RH WIND       PRES   REMARKS
GOODLAND       CLEAR     63  59  87 S13       30.00S FOG
HILL CITY      CLEAR     62  60  93 E5        30.00S FOG
NORTON         SUNNY     61  57  88 E3        30.00S
PHILLIPSBURG   PTCLDY    64  64 100 E5        30.01S FOG
SMITH CENTER   CLEAR     61  59  94 E7        30.01
HAYS           CLEAR     63  55  77 S6        30.01S
RUSSELL        PTCLDY    64  63  96 S7        30.00R
CONCORDIA      CLEAR     60  56  86 SE3       30.00S
SALINA         CLEAR     65  58  78 CALM      30.00S
TOPEKA         PTCLDY    61  59  93 CALM      30.00R FOG



USA.gov is the U.S. government's official web portal to all federal, state and local government web resources and services.